Погода в Калиакре

Болгария     43°22′00″N   28°27′59″E
темп.,
°C
ветер,
м/с
пор.,
м/с
влажн.,
%
обл.,
%
осадки,
мм/ч
давл.,
гПа
погр.,
м
19 апреля, пн
пн1900:00+9с5584100 0.0 1017287
03:00+9с5680100 0.0 1017317
06:00+8ссв557736 0.0 1016264
09:00+9с5576100 0.0 1016278
12:00+9всв5677100 0.0 1015310
15:00+9всв6781100 0.0 1013378
18:00+9в6787100 1.2 1011431
21:00+8св4595100 7.8 1011296
20 апреля, вт
вт2000:00+9ссв7793100 4.5 1009446
03:00+9с5690100 5.3 1009373
06:00+9с3387100 0.1 1009269
09:00+9з4592100 1.3 1011333
12:00+9з5690100 1.8 1012333
15:00+10зюз448797 1.9 1012104
18:00+11юз568485 0.1 101295
21:00+11зсз6985100 0.3 1014147
21 апреля, ср
ср2100:00+10зюз5685100 0.0 1015127
03:00+10зюз678197 0.0 1015139
06:00+10зюз4579100 0.0 101678
09:00+10зюз5679100 0.0 1017107
12:00+11юз567993 0.0 101891
15:00+11ююз5682100 0.1 101866
18:00+11ююз68845 0.1 1018102
21:00+11ююз68865 0.2 1019103
22 апреля, чт
чт2200:00+11юз58885 0.0 1019104
03:00+11юз45875 0.0 101964
06:00+10зюз33815 0.0 102034
09:00+10з12795 0.0 102116
12:00+11ююз34740 0.0 102159
15:00+12ю57825 0.0 102185
18:00+12ю68806 0.0 102090
21:00+12ю5781100 0.0 102066
23 апреля, пт
пт2300:00+11ю458473 0.0 102060
03:00+11ю47875 0.0 1019104
06:00+11ю3587100 0.0 101868
09:00+11ююв4687100 0.0 101881
12:00+11ю568692 0.0 1019106
15:00+12ююв5683100 0.0 101788
18:00+12ююв4582100 0.0 101664
21:00+12ю3384100 0.0 101722